Вернуться в каталог

STARLINK-5084

АктивенСвязьVLEO
NORAD 54851·PAYLOAD·🇺🇸 United States

Запущен Dec 28, 2022 с Cape Canaveral Space Force Station

Loading…

Ближайшие Пролёты (ближайшие 24 часа)

TLE

СвежийSource: CelesTrak SupGP

Эпоха: Sep 14, 2026, 20:46 UTC

1 54851C 22177AH  26257.86576389 -.00025104  00000+0 -90946-3 0  2577
2 54851  43.0021 132.9423 0001498 270.9893 170.6523 15.27583694    14

Отслеживайте STARLINK-5084 в реальном времени с AllMySat

Download on the App Store